Powrót do katalogu

FREGAT DEB

LostUNKNOWN
NORAD 46518·DEBRIS·🇷🇺 Russia

Wystrzelony Jul 18, 2011 z Baikonur Cosmodrome

Loading…

Następne Przeloty (najbliższe 24 godziny)

TLE

NieaktualneSource: Space-Track

Epoka: Nov 12, 2020, 10:45 UTC

1 46518U 11037LW  20317.44798551 -.00000195  00000-0 -11342-2 0  9992
2 46518  51.5386 103.1638 2031482 236.7518 102.2170  9.79902350  7170

Śledź FREGAT DEB w czasie rzeczywistym z AllMySat

Download on the App Store